Tracking 25612 objects as of 19-May-2022
HD Live streaming from Space Station
objects crossing your sky now

COSMOS 1375 DEB

Track COSMOS 1375 DEB now!
10-day predictions


NORAD ID: 17799
Int'l Code: 1982-055AR
Perigee: 914.4 km
Apogee: 935.2 km
Inclination: 65.8 °
Period: 103.4 minutes
Semi major axis: 7295 km
RCS: 0.043 m2 (small)
Launch date: June 6, 1982
Source: Commonwealth of Independent States (former USSR) (CIS)
Launch site: PLESETSK MISSILE AND SPACE COMPLEX (PKMTR)

Note: This is SATELLITE DEBRIS
aabbcc
Your satellite tracking list
Your tracking list is empty




NASA's NSSDC Master Catalog

Two Line Element Set (TLE):
1 17799U 82055AR  22139.50859181  .00000713  00000-0  61107-3 0  9996
2 17799  65.8369 161.2461 0014214  66.9772  85.2114 13.93134908852111
Source of the keplerian elements: AFSPC